Regional Weather Roundup
Issued by NWS

Home | Current Version | Previous Version | Graphics & Text | Print | Product List | Glossary On
Versions: 1 2 3 4 5 6 7 8 9 10 11 12 13 14 15 16 17 18 19 20 21 22 23 24 25 26 27 28 29 30 31 32 33 34 35 36 37 38 39 40 41 42 43 44 45 46 47 48 49 50
000
ASUS45 KSLC 041110
RWRUT
UTAH REGIONAL WEATHER ROUNDUP
NATIONAL WEATHER SERVICE SALT LAKE CITY UT
500 AM MDT TUE AUG 04 2015

UTZ001>011-023>025-041200-

NORTHERN UTAH

CITY           SKY/WX    TMP DP  RH WIND       PRES   REMARKS
BRIGHAM CITY   CLEAR     58  55  90 CALM      30.10S
HILL AFB       CLEAR     58  55  88 E13       30.10S
LOGAN          PTCLDY    53  51  93 E6        30.11R FOG
OGDEN          CLEAR     58  55  90 S5        30.09R
PROVO AIRPORT  CLEAR     55  50  82 CALM      30.12S
SALT LAKE CITY PTCLDY    60  54  80 SE6       30.08S
VERNAL         CLEAR     55  48  77 W3        30.13R
WENDOVER       CLEAR     64  52  63 CALM      30.08S
HEBER CITY     CLEAR     48  46  93 CALM      30.19S
WEST JORDAN    CLEAR     57  54  88 SE3       30.11R

$$

UTZ012>022-026-027-041200-

SOUTHERN/CENTRAL UTAH

CITY           SKY/WX    TMP DP  RH WIND       PRES   REMARKS
BLANDING       CLEAR     58  47  66 N8        30.25S
BRYCE CANYON   CLEAR     47  41  80 W9        30.32R
CEDAR CITY     CLEAR     54  42  64 NE3       30.15R
DELTA          PTCLDY    59  53  82 NE7       30.10R
HANKSVILLE     CLEAR     61  55  82 NW3       30.11S
MILFORD        PTCLDY    56  45  66 SW8       30.10S
MOAB/CYNLANDS  CLEAR     61  54  77 W5        30.08R
PRICE          CLEAR     57  48  72 N9        30.17S
ST GEORGE      SUNNY     77  37  24 CALM      29.96R
KANAB          CLEAR     61  45  55 NE3       30.18R

$$

REGIONAL REPORTS     COLORADO/ARIZONA

CITY           SKY/WX    TMP DP  RH WIND       PRES   REMARKS
CRAIG, CO      PTCLDY    47  47 100 CALM      30.20R FOG
GRAND JUNCTION CLEAR     60  49  66 NE7       30.12S
RIFLE          CLEAR     58  52  80 CALM      30.17R
MONTROSE       PTCLDY    61  47  59 CALM      30.19S
CORTEZ         CLEAR     53  51  93 S5        30.19S
PAGE, AZ       CLEAR     75  45  34 W3        30.06R
GRAND CANYON   CLEAR     45  37  73 CALM      30.26R
KINGMAN        CLEAR     75  33  21 S12       29.98R
FLAGSTAFF      CLEAR     52  40  63 CALM      30.29R

$$

REGIONAL REPORTS    NEVADA/IDAHO/WYOMING

CITY           SKY/WX    TMP DP  RH WIND       PRES   REMARKS
LAS VEGAS, NV  CLEAR     85  33  15 S6        29.81S
ELY            CLEAR     51  39  63 S9        30.18S
ELKO           CLEAR     59  42  53 NE6       30.08S
POCATELLO, ID  CLEAR     55  55 100 CALM      30.07S
BURLEY         CLEAR     58  53  84 NW5       30.01R
EVANSTON, WY   PTCLDY    48  46  93 S8        30.23S
ROCK SPRINGS   MOCLDY    52  49  89 W15       30.17R
KEMMERER       CLOUDY    50  50 100 W12       30.21S FOG

$$


USA.gov is the U.S. government's official web portal to all federal, state and local government web resources and services.